Regional Weather Roundup
Issued by NWS Sterling, VA

Home | Current Version | Previous Version | Graphics & Text | Print | Product List | Glossary On
Versions: 1 2 3 4 5 6 7 8 9 10 11 12 13 14 15 16 17 18 19 20 21 22 23 24 25 26 27
000
ASUS41 KLWX 222310
RWRLWX

REGIONAL WEATHER ROUNDUP
NATIONAL WEATHER SERVICE BALTIMORE MD/WASHINGTON DC
700 PM EDT MON AUG 22 2016

Note: "FAIR" indicates few or no clouds below 12,000 feet
with no significant weather and/or obstructions to visibility.
 TC=TEMPERATURE CELSIUS

 * =Non NWS site. Station does not report precipitation (e.g. rain,
    snow, etc.), thunder, or fog.

DCZ001-MDZ009-015-VAZ040>042-051-053>054-230000-
WASHINGTON METRO

CITY           SKY/WX    TMP DP  RH WIND       PRES   REMARKS
WASHINGTON NAT PTCLDY    82  56  40 NW13      30.12R
DULLES         PTCLDY    80  56  43 N7        30.12S
ANDREWS AFB    CLEAR     78  58  49 N6        30.11R
FT BELVOIR     PTCLDY    78  62  57 N2        30.11S
QUANTICO       PTCLDY    81  62  52 NW6       30.12R
COLLEGE PARK*  PTCLDY    79  57  47 NW5       30.11S
LEESBURG*      CLEAR     81  59  47 N7        30.14R
GAITHERSBURG*  MOCLDY    79  57  47 CALM      30.17R

$$

MDZ006>007-011-014-230000-
BALTIMORE METRO

CITY           SKY/WX    TMP DP  RH WIND       PRES   REMARKS
BWI AIRPORT    PTCLDY    79  56  45 NW6       30.11R
MD SCIENCE CTR   N/A     81  54  39 MISG      30.10R
MARTIN STATE   CLEAR     81  59  47 NW5       30.12R
ANNAPOLIS      CLEAR     82  59  45 NW9       30.10R
FORT MEADE*    CLEAR     72  63  73 N5        30.13S

$$

MDZ012-015-019>023-230000-
MARYLAND EASTERN SHORE

CITY           SKY/WX    TMP DP  RH WIND       PRES   REMARKS
OCEAN CITY     CLEAR     79  60  52 NW7       30.09R
SALISBURY      CLEAR     79  58  48 N7        30.10R
BAY BRIDGE AP* CLEAR     79  59  50 N6        30.10S
CAMBRIDGE*     CLEAR     79  59  50 N7        30.10R
EASTON*        PTCLDY    81  64  57 N7        30.14R

$$

MDZ017>025-230000-
SOUTHERN MARYLAND

CITY           SKY/WX    TMP DP  RH WIND       PRES   REMARKS
PATUXENT RIVER PTCLDY    81  58  45 N10       30.10R
ST INIGOES     CLEAR     81  61  50 VRB3      30.10R
LEONARDTOWN*   CLEAR     79  61  53 CALM      30.13R

$$

MDZ003>005-230000-
NORTH CENTRAL MARYLAND

CITY           SKY/WX    TMP DP  RH WIND       PRES   REMARKS
FREDERICK*     PTCLDY    81  61  50 N6        30.15S
HAGERSTOWN APT PTCLDY    79  52  38 N9        30.14R

$$

MDZ501>502-230000-
WESTERN MARYLAND

CITY           SKY/WX    TMP DP  RH WIND       PRES   REMARKS
OAKLAND*         N/A     64  54  68 W5        30.26R
CUMBERLAND*    SUNNY     79  54  41 NW7       30.20R

$$

VAZ025>031-230000-
SHENANDOAH VALLEY

CITY           SKY/WX    TMP DP  RH WIND       PRES   REMARKS
WINCHESTER*    SUNNY     79  55  44 CALM      30.15R
FRONT ROYAL*   FAIR      77  61  57 CALM      30.14R
LURAY*         FAIR      75  59  57 CALM      30.16R
NEW MARKET*    CLOUDY   N/A N/A N/A CALM      30.15R
STAUNTON*      MOSUNNY   78  55  46 CALM      30.18S
WAYNESBORO*    FAIR      77  53  43 N3        30.17S

$$

WVZ021-048>050-054>055-230000-
EASTERN WEST VIRGINIA PANHANDLE

CITY           SKY/WX    TMP DP  RH WIND       PRES   REMARKS
MARTINSBURG    PTCLDY    80  55  42 N5        30.13S
PETERSBURG*    SUNNY     77  56  48 W5        30.17R

$$

VAZ036>039-050-230000-
CENTRAL FOOTHILLS

CITY           SKY/WX    TMP DP  RH WIND       PRES   REMARKS
CHARLOTTESVILL SUNNY     82  61  48 CALM      30.14R
CULPEPER*      CLEAR     80  65  60 CALM      30.14R
ORANGE*          N/A     81  61  50 CALM      30.15S
GORDONSVILLE*  NOT AVBL
WARRENTON*     MOCLDY    80  57  45 NW3       30.13R

$$

VAZ055>057-230000-
NORTH AND CENTRAL PIEDMONT

CITY           SKY/WX    TMP DP  RH WIND       PRES   REMARKS
FREDERICKSBRG*   N/A     82  59  45 CALM      30.12R
STAFFORD*      CLEAR     79  61  54 CALM      30.16S

$$

NCZ024-NYZ072-PAZ021-071-VAZ022-071-230000-
OTHER REGIONAL OBSERVATIONS

CITY           SKY/WX    TMP DP  RH WIND       PRES   REMARKS
NEW YORK CITY  CLEAR     74  48  39 VRB5      30.11R
PHILADELPHIA   PTCLDY    80  50  34 NW15G23   30.10R
PITTSBURGH     MOSUNNY   75  52  44 W7        30.19R
ROANOKE        MOSUNNY   79  55  43 W7        30.19R
RICHMOND       PTCLDY    81  56  42 N12       30.12R
RALEIGH        MOSUNNY   84  56  38 N3        30.13R

$$

ANZ530>537-230000-
MARINE OBSERVATIONS

STATION/POSITION TIME  TEMP    WIND        PRES
                       AIR SEA DIR/SP/G
                 (UTC) (F)     (DEG/KT/KT) (MB)
THOMAS PT LIGHT  2300   81 83  340/ 10/ 11 1020.8R
BALT KEY BRIDGE  2242          300/  7/ 10   N/A
COVE POINT       2242          350/ 13/ 15   N/A
LEWISETTA        2242      83  310/  7/  8   N/A
SOLOMONS ISLAND  2248          340/  8/ 10   N/A
PINEY POINT      2242          340/ 14/ 15   N/A

$$





USA.gov is the U.S. government's official web portal to all federal, state and local government web resources and services.